الصفحة الرئيسية
METAR-TAF:

METAR-TAF

مطار :

Elkhart-Morton County Airport

Elkhart, كانساس, الولايات المتحدة

دائرة عرض: 37-00N, خط طول: 101-54W, ارتفاع: 1099 متر

مراقبة الطقس الحالي

تاريخ ووقت الإصدار 16 دقيقة قبل الساعة 02:35UTC
ريح 7 عقدة من الشمال/الشمال الشرقي
درجة الحرارة 19°درجة مئوية
الرطوبة 60%
ضغط 1011 hPa
الرؤية: 16.1 كم
سماء صافية

METAR: KEHA 250235Z AUTO 03007KT 10SM CLR 19/11 A2985 RMK AO2 T01870111

زمن: 21:51 (02:51 UTC)


TAF: مفقودة

أرصاد الطقس والتوقعات من أكثر من 4000 مطار (تقارير الطقس للمطار METAR والتنبؤ بالطقس بالمطارTAF).

المحطات المتاحة هي النقط الصفراء والحمراء على الخريطة.

حرك المؤشر فوق النقطة لمعرفة اسم المحطة.

ثم انقر لمعرفة أرصاد وتوقعات الطقس.

لتغيير الخارطة: اضغط على الأزرار الخضراء مع رمز الصليب الأسود للتكبير. على الزر الأخضر مع شرطة للتصغير، أو على الأسهم الخضراء للخرائط المجاورة.


METAR-TAF: